Location: Unspecified
(44.0704°N, 88.6889°W)
Time: 14:24:11
(UTC+01:00)

Okean 3 - Pass Details

Date: 01 October 2020
Orbit: 575 x 602 km, 82.5° (Epoch: 26 October)

Event Time Altitude Azimuth Distance (km) Brightness Sun altitude
Rises 11:58:25 0° 163° (SSE) 2,835 7.0 -21.2°
Reaches altitude 10° 12:00:47 10° 153° (SSE) 1,935 6.2 -20.8°
Maximum altitude 12:04:35 32° 91° (E) 1,038 5.3 -20.1°
Drops below altitude 10° 12:08:24 10° 28° (NNE) 1,938 6.7 -19.5°
Sets 12:10:46 0° 18° (NNE) 2,841 7.4 -19.1°
